FLOCK 4V-16 (46527 NORAD) Tracking and Keplerian Element Data

This shows tracking and keplerian element data for the satellite.

Feedback or suggestion? Click here.




ElementValue
Catalog46527
NameFLOCK 4V-16
Epoch Orbit870
Epoch Day330.84077279
Epoch Year2020
RAAN42.3942
Inclination97.4636
Eccentricity0.0007556
Argument of Perigee301.3632
Mean Anonmoly58.686
Mean Motion15.14617947
Decay Rate1.212E-05
L11 46527U 20061BD 20330.84077279 .00001212 00000-0 69115-4 0 9997
L22 46527 97.4636 42.3942 0007556 301.3632 58.6860 15.14617947 8709

Live tracking and technical data element details for FLOCK 4V-16 (NORAD 46527). FLOCK 4V-16 can be tracked NOW for your location showing map with azimuth and elevation plus other details from your city location.

Track the satellite on the map from your city or location and see movement details for azimuth, elevation, latitude, longitude, range, height, and movement on the map or in text.







IsCatalogInMostPopularTable: catalog: 46527, numindb: 15
Update: records affected: 1



GetName: 46527 FLOCK 4V-16

Hit Count: updated at: Thu, 26 Nov 2020 23:52:38 GMT